Time,TemperatureF,DewpointF,PressureIn,WindDirection,WindDirectionDegrees,WindSpeedMPH,WindSpeedGustMPH,Humidity,HourlyPrecipIn,Conditions,Clouds,dailyrainin,SoftwareType,DateUTC
2013-03-28 00:00:00,39.6,31.0,29.99,North,353,4.0,5.0,70,0.00,,,0.00,weatherlink.com 1.10,2013-03-28 04:00:00,
2013-03-28 00:15:00,39.4,30.0,30.00,NNW,344,0.0,4.0,70,0.00,,,0.00,weatherlink.com 1.10,2013-03-28 04:15:00,
2013-03-28 00:30:00,39.1,30.0,30.00,NW,304,1.0,4.0,70,0.00,,,0.00,weatherlink.com 1.10,2013-03-28 04:30:00,
2013-03-28 00:45:00,38.8,30.0,29.99,NNE,28,5.0,5.0,71,0.00,,,0.00,weatherlink.com 1.10,2013-03-28 04:45:00,
2013-03-28 01:00:00,38.6,30.0,29.99,WNW,291,4.0,4.0,71,0.00,,,0.00,weatherlink.com 1.10,2013-03-28 05:00:00,
2013-03-28 01:15:00,38.5,30.0,29.99,SW,214,5.0,7.0,72,0.00,,,0.00,weatherlink.com 1.10,2013-03-28 05:15:00,
2013-03-28 01:30:00,38.4,30.0,29.99,NNW,340,3.0,5.0,72,0.00,,,0.00,weatherlink.com 1.10,2013-03-28 05:30:00,
2013-03-28 01:45:00,38.2,30.0,29.99,NNE,27,0.0,7.0,72,0.00,,,0.00,weatherlink.com 1.10,2013-03-28 05:45:00,
2013-03-28 02:00:00,38.1,30.0,29.98,West,259,4.0,7.0,72,0.00,,,0.00,weatherlink.com 1.10,2013-03-28 06:00:00,
2013-03-28 02:15:00,37.9,30.0,29.98,ESE,110,8.0,8.0,73,0.00,,,0.00,weatherlink.com 1.10,2013-03-28 06:15:00,
2013-03-28 02:30:00,37.7,30.0,29.98,NW,308,1.0,5.0,73,0.00,,,0.00,weatherlink.com 1.10,2013-03-28 06:30:00,
2013-03-28 02:45:00,37.6,30.0,29.98,North,352,1.0,6.0,73,0.00,,,0.00,weatherlink.com 1.10,2013-03-28 06:45:00,
2013-03-28 03:00:00,37.5,30.0,29.98,NNW,340,1.0,6.0,73,0.00,,,0.00,weatherlink.com 1.10,2013-03-28 07:00:00,
2013-03-28 03:15:00,37.3,29.0,29.98,West,259,1.0,5.0,73,0.00,,,0.00,weatherlink.com 1.10,2013-03-28 07:15:00,
2013-03-28 03:30:00,37.2,29.0,29.97,WNW,293,0.0,5.0,73,0.00,,,0.00,weatherlink.com 1.10,2013-03-28 07:30:00,
2013-03-28 03:45:00,37.1,30.0,29.97,NNE,14,3.0,7.0,74,0.00,,,0.00,weatherlink.com 1.10,2013-03-28 07:45:00,
2013-03-28 04:00:00,36.9,29.0,29.97,WNW,283,1.0,8.0,74,0.00,,,0.00,weatherlink.com 1.10,2013-03-28 08:00:00,
2013-03-28 04:15:00,36.7,29.0,29.97,North,5,0.0,5.0,75,0.00,,,0.00,weatherlink.com 1.10,2013-03-28 08:15:00,
2013-03-28 04:30:00,36.6,29.0,29.97,North,354,0.0,5.0,75,0.00,,,0.00,weatherlink.com 1.10,2013-03-28 08:30:00,
2013-03-28 04:45:00,36.4,30.0,29.97,WNW,291,1.0,6.0,76,0.00,,,0.00,weatherlink.com 1.10,2013-03-28 08:45:00,
2013-03-28 05:00:00,36.3,29.0,29.97,NNW,328,1.0,4.0,76,0.00,,,0.00,weatherlink.com 1.10,2013-03-28 09:00:00,
2013-03-28 05:15:00,36.1,30.0,29.97,NNW,347,0.0,5.0,77,0.00,,,0.00,weatherlink.com 1.10,2013-03-28 09:15:00,
2013-03-28 05:30:00,36.0,29.0,29.98,NW,308,1.0,4.0,77,0.00,,,0.00,weatherlink.com 1.10,2013-03-28 09:30:00,
2013-03-28 05:45:00,35.9,29.0,29.98,NNW,329,0.0,3.0,77,0.00,,,0.00,weatherlink.com 1.10,2013-03-28 09:45:00,
2013-03-28 06:00:00,35.7,29.0,29.98,West,280,1.0,2.0,78,0.00,,,0.00,weatherlink.com 1.10,2013-03-28 10:00:00,
2013-03-28 06:15:00,35.5,29.0,29.98,WNW,303,0.0,3.0,78,0.00,,,0.00,weatherlink.com 1.10,2013-03-28 10:15:00,
2013-03-28 06:30:00,35.6,29.0,29.98,North,358,0.0,4.0,78,0.00,,,0.00,weatherlink.com 1.10,2013-03-28 10:30:00,
2013-03-28 06:45:00,35.5,30.0,29.98,NW,315,1.0,3.0,79,0.00,,,0.00,weatherlink.com 1.10,2013-03-28 10:45:00,
2013-03-28 07:00:00,35.8,30.0,29.99,NNE,26,3.0,4.0,78,0.00,,,0.00,weatherlink.com 1.10,2013-03-28 11:00:00,
2013-03-28 07:15:00,36.0,30.0,29.99,WNW,298,1.0,4.0,78,0.00,,,0.00,weatherlink.com 1.10,2013-03-28 11:15:00,
2013-03-28 07:30:00,36.4,30.0,29.99,North,356,5.0,9.0,77,0.00,,,0.00,weatherlink.com 1.10,2013-03-28 11:30:00,
2013-03-28 07:45:00,36.7,30.0,30.00,NW,322,0.0,3.0,76,0.00,,,0.00,weatherlink.com 1.10,2013-03-28 11:45:00,
2013-03-28 08:01:00,37.3,30.0,30.00,NNE,24,1.0,5.0,75,0.00,,,0.00,weatherlink.com 1.10,2013-03-28 12:01:00,
2013-03-28 08:16:00,38.2,31.0,30.01,SW,226,1.0,6.0,74,0.00,,,0.00,weatherlink.com 1.10,2013-03-28 12:16:00,
2013-03-28 08:31:00,38.9,31.0,30.01,NNE,32,2.0,6.0,72,0.00,,,0.00,weatherlink.com 1.10,2013-03-28 12:31:00,
2013-03-28 08:46:00,40.0,31.0,30.00,NW,321,1.0,8.0,69,0.00,,,0.00,weatherlink.com 1.10,2013-03-28 12:46:00,
2013-03-28 09:01:00,41.1,30.0,30.00,North,11,5.0,8.0,66,0.00,,,0.00,weatherlink.com 1.10,2013-03-28 13:01:00,
2013-03-28 09:16:00,42.0,30.0,30.00,NNE,33,3.0,9.0,63,0.00,,,0.00,weatherlink.com 1.10,2013-03-28 13:16:00,
2013-03-28 10:01:00,43.4,30.0,30.01,NNE,19,8.0,8.0,60,0.00,,,0.00,weatherlink.com 1.10,2013-03-28 14:01:00,
2013-03-28 10:31:00,44.5,30.0,30.01,ESE,122,1.0,6.0,57,0.00,,,0.00,weatherlink.com 1.10,2013-03-28 14:31:00,
2013-03-28 10:46:00,45.2,30.0,30.01,NNE,25,2.0,9.0,56,0.00,,,0.00,weatherlink.com 1.10,2013-03-28 14:46:00,
2013-03-28 11:01:00,46.4,29.0,30.02,WNW,298,1.0,10.0,51,0.00,,,0.00,weatherlink.com 1.10,2013-03-28 15:01:00,
2013-03-28 11:16:00,46.4,29.0,30.01,WNW,291,4.0,8.0,51,0.00,,,0.00,weatherlink.com 1.10,2013-03-28 15:16:00,
2013-03-28 11:31:00,46.7,30.0,30.01,North,8,3.0,8.0,52,0.00,,,0.00,weatherlink.com 1.10,2013-03-28 15:31:00,
2013-03-28 11:46:00,46.3,29.0,30.01,NNE,20,3.0,7.0,52,0.00,,,0.00,weatherlink.com 1.10,2013-03-28 15:46:00,
2013-03-28 12:01:00,46.9,29.0,30.01,NE,34,1.0,7.0,50,0.00,,,0.00,weatherlink.com 1.10,2013-03-28 16:01:00,
2013-03-28 12:16:00,47.9,29.0,30.01,ESE,114,4.0,10.0,48,0.00,,,0.00,weatherlink.com 1.10,2013-03-28 16:16:00,
2013-03-28 12:31:00,47.8,29.0,30.01,North,11,1.0,5.0,49,0.00,,,0.00,weatherlink.com 1.10,2013-03-28 16:31:00,
2013-03-28 12:46:00,47.4,29.0,30.01,WNW,284,6.0,7.0,49,0.00,,,0.00,weatherlink.com 1.10,2013-03-28 16:46:00,
2013-03-28 13:01:00,46.3,30.0,30.01,NE,37,0.0,6.0,54,0.00,,,0.00,weatherlink.com 1.10,2013-03-28 17:01:00,
2013-03-28 13:16:00,48.3,30.0,30.01,NE,53,0.0,10.0,49,0.00,,,0.00,weatherlink.com 1.10,2013-03-28 17:16:00,
2013-03-28 13:31:00,47.6,29.0,30.01,WSW,248,1.0,8.0,49,0.00,,,0.00,weatherlink.com 1.10,2013-03-28 17:31:00,
2013-03-28 14:01:00,47.7,31.0,30.01,NE,41,3.0,7.0,52,0.00,,,0.00,weatherlink.com 1.10,2013-03-28 18:01:00,
2013-03-28 14:16:00,49.4,30.0,30.00,East,87,3.0,7.0,48,0.00,,,0.00,weatherlink.com 1.10,2013-03-28 18:16:00,
2013-03-28 14:31:00,48.9,29.0,30.00,WNW,295,0.0,6.0,47,0.00,,,0.00,weatherlink.com 1.10,2013-03-28 18:31:00,
2013-03-28 14:46:00,46.6,33.0,30.01,North,8,0.0,5.0,60,0.00,,,0.00,weatherlink.com 1.10,2013-03-28 18:46:00,
2013-03-28 15:01:00,47.3,33.0,30.01,North,359,1.0,5.0,57,0.00,,,0.00,weatherlink.com 1.10,2013-03-28 19:01:00,
2013-03-28 15:16:00,48.2,31.0,30.01,North,11,3.0,5.0,52,0.00,,,0.00,weatherlink.com 1.10,2013-03-28 19:16:00,
2013-03-28 15:31:00,48.3,31.0,30.01,West,280,4.0,9.0,52,0.00,,,0.00,weatherlink.com 1.10,2013-03-28 19:31:00,
2013-03-28 15:46:00,49.6,31.0,30.01,NNE,32,5.0,8.0,50,0.00,,,0.00,weatherlink.com 1.10,2013-03-28 19:46:00,
2013-03-28 16:01:00,49.2,31.0,30.01,NE,44,5.0,7.0,49,0.00,,,0.00,weatherlink.com 1.10,2013-03-28 20:01:00,
2013-03-28 16:31:00,47.0,34.0,30.01,North,4,0.0,3.0,62,0.00,,,0.00,weatherlink.com 1.10,2013-03-28 20:31:00,
2013-03-28 17:01:00,47.2,32.0,30.02,NNE,30,2.0,8.0,55,0.00,,,0.00,weatherlink.com 1.10,2013-03-28 21:01:00,
2013-03-28 17:17:00,47.5,31.0,30.02,NNE,13,1.0,5.0,54,0.00,,,0.00,weatherlink.com 1.10,2013-03-28 21:17:00,
2013-03-28 17:47:00,48.3,31.0,30.03,NNE,18,3.0,6.0,52,0.00,,,0.00,weatherlink.com 1.10,2013-03-28 21:47:00,
2013-03-28 18:02:00,47.9,31.0,30.04,North,4,5.0,7.0,52,0.00,,,0.00,weatherlink.com 1.10,2013-03-28 22:02:00,
2013-03-28 18:17:00,47.6,31.0,30.04,NNW,340,2.0,8.0,52,0.00,,,0.00,weatherlink.com 1.10,2013-03-28 22:17:00,
2013-03-28 18:32:00,47.4,30.0,30.05,NNE,16,6.0,6.0,52,0.00,,,0.00,weatherlink.com 1.10,2013-03-28 22:32:00,
2013-03-28 18:47:00,47.4,30.0,30.05,NNE,32,4.0,8.0,52,0.00,,,0.00,weatherlink.com 1.10,2013-03-28 22:47:00,
2013-03-28 19:02:00,47.2,30.0,30.06,WSW,257,1.0,5.0,52,0.00,,,0.00,weatherlink.com 1.10,2013-03-28 23:02:00,
2013-03-28 19:17:00,47.0,30.0,30.06,NNE,16,3.0,6.0,52,0.00,,,0.00,weatherlink.com 1.10,2013-03-28 23:17:00,
2013-03-28 19:32:00,46.8,30.0,30.06,NNE,13,1.0,6.0,52,0.00,,,0.00,weatherlink.com 1.10,2013-03-28 23:32:00,
2013-03-28 19:47:00,46.7,30.0,30.07,NNE,13,4.0,10.0,52,0.00,,,0.00,weatherlink.com 1.10,2013-03-28 23:47:00,
2013-03-28 20:02:00,46.5,30.0,30.07,East,98,0.0,7.0,54,0.00,,,0.00,weatherlink.com 1.10,2013-03-29 00:02:00,
2013-03-28 20:17:00,46.2,30.0,30.08,NNW,329,2.0,10.0,54,0.00,,,0.00,weatherlink.com 1.10,2013-03-29 00:17:00,
2013-03-28 20:32:00,46.1,31.0,30.09,ENE,65,3.0,9.0,55,0.00,,,0.00,weatherlink.com 1.10,2013-03-29 00:32:00,
2013-03-28 21:02:00,45.7,31.0,30.10,NE,34,2.0,5.0,56,0.00,,,0.00,weatherlink.com 1.10,2013-03-29 01:02:00,
2013-03-28 21:17:00,45.5,31.0,30.10,NE,36,0.0,7.0,57,0.00,,,0.00,weatherlink.com 1.10,2013-03-29 01:17:00,
2013-03-28 21:32:00,45.3,31.0,30.11,WNW,284,1.0,7.0,57,0.00,,,0.00,weatherlink.com 1.10,2013-03-29 01:32:00,
2013-03-28 21:47:00,45.2,31.0,30.11,NNE,30,1.0,4.0,57,0.00,,,0.00,weatherlink.com 1.10,2013-03-29 01:47:00,
2013-03-28 22:02:00,45.2,31.0,30.11,NW,307,0.0,7.0,57,0.00,,,0.00,weatherlink.com 1.10,2013-03-29 02:02:00,
2013-03-28 22:17:00,44.8,31.0,30.11,WSW,252,0.0,4.0,58,0.00,,,0.00,weatherlink.com 1.10,2013-03-29 02:17:00,
2013-03-28 22:32:00,44.3,31.0,30.11,NNW,335,1.0,5.0,59,0.00,,,0.00,weatherlink.com 1.10,2013-03-29 02:32:00,
2013-03-28 22:47:00,43.9,31.0,30.11,NW,314,0.0,5.0,60,0.00,,,0.00,weatherlink.com 1.10,2013-03-29 02:47:00,
2013-03-28 23:02:00,43.5,30.0,30.11,North,349,0.0,4.0,60,0.00,,,0.00,weatherlink.com 1.10,2013-03-29 03:02:00,
2013-03-28 23:17:00,43.1,30.0,30.11,NW,319,2.0,6.0,61,0.00,,,0.00,weatherlink.com 1.10,2013-03-29 03:17:00,
2013-03-28 23:32:00,42.9,31.0,30.11,SSW,211,0.0,4.0,62,0.00,,,0.00,weatherlink.com 1.10,2013-03-29 03:32:00,
2013-03-28 23:47:00,42.8,30.0,30.11,NNW,333,0.0,3.0,62,0.00,,,0.00,weatherlink.com 1.10,2013-03-29 03:47:00,